Regional Weather Roundup
Issued by NWS

Home | Current Version | Previous Version | Graphics & Text | Print | Product List | Glossary On
Versions: 1 2 3 4 5 6 7 8 9 10 11 12 13 14 15 16 17 18 19 20 21 22 23 24 25 26 27 28 29 30 31 32 33 34 35 36 37 38 39 40 41 42 43 44 45 46 47 48 49 50
000
ASUS45 KPSR 030010
RWRAZ

ARIZONA HOURLY REGIONAL WEATHER ROUNDUP
NATIONAL WEATHER SERVICE PHOENIX AZ
500 PM MST WED SEP 02 2015

NOTE: FAIR INDICATES FEW OR NO CLOUDS BELOW 12,000 FEET WITH NO
SIGNIFICANT WEATHER AND/OR OBSTRUCTIONS TO VISIBILITY.

AZZ001>003-036-030100-
NORTHWEST ARIZONA

CITY           SKY/WX    TMP DP  RH WIND       PRES   REMARKS
BULLHEAD CITY  MOSUNNY  100  39  12 S17G24    29.75F
KINGMAN        PTSUNNY   91  38  15 SW23G30   29.96S
6HR MIN TEMP:  87; 6HR MAX TEMP:  95;

$$

AZZ004>008-015-016-018-030100-
NORTH CENTRAL ARIZONA

CITY           SKY/WX    TMP DP  RH WIND       PRES   REMARKS
GRAND CANYON   MOSUNNY   76  39  26 SW8G20    30.20F
6HR MIN TEMP:  72; 6HR MAX TEMP:  80;

WILLIAMS       MOSUNNY   79  41  25 SW13      30.26S
PRESCOTT       MOSUNNY   83  37  19 SW9       30.10F
6HR MIN TEMP:  79; 6HR MAX TEMP:  85;

FLAGSTAFF      MOSUNNY   72  45  37 SW14G22   30.25F
6HR MIN TEMP:  70; 6HR MAX TEMP:  75;

PAYSON         MOSUNNY   82  39  21 SW9G17    30.15R
PAGE           PTSUNNY   91  45  20 N8        29.98S
6HR MIN TEMP:  84; 6HR MAX TEMP:  92;

$$

AZZ009>014-017-030100-
NORTHEAST ARIZONA

CITY           SKY/WX    TMP DP  RH WIND       PRES   REMARKS
WINSLOW        CLOUDY    75  58  55 SW5       30.11F
6HR MIN TEMP:  66; 6HR MAX TEMP:  82; 6HR PCP:  0.04;

SAINT JOHNS    LGT RAIN  64  58  80 E10       30.20F
6HR MIN TEMP:  65; 6HR MAX TEMP:  82; 6HR PCP:  0.12;

WINDOW ROCK    CLOUDY    65  49  56 SW13G28   30.26R
6HR MIN TEMP:  65; 6HR MAX TEMP:  82; 6HR PCP: TRACE;

SHOW LOW       CLOUDY    70  52  52 E6        30.25R
$$

AZZ023-030100-
GREATER PHOENIX AREA

CITY           SKY/WX    TMP DP  RH WIND       PRES   REMARKS
PHOENIX        PTSUNNY  100  49  17 N12       29.80F
6HR MIN TEMP:  91; 6HR MAX TEMP: 101;

BUCKEYE        MOSUNNY   99  54  22 SW10      29.80F
GLENDALE       PTSUNNY  100  48  17 VRB5      29.82F
LUKE AFB       MOSUNNY  101  49  17 NE6       29.80S
6HR MIN TEMP:  93; 6HR MAX TEMP: 102;

DEER VALLEY    MOSUNNY   97  49  19 VRB7      29.84S
6HR MIN TEMP:  90; 6HR MAX TEMP:  99;

SCOTTSDALE     MOSUNNY   96  47  18 E3        29.86F
6HR MIN TEMP:  90; 6HR MAX TEMP:  97;

MESA-FALCON    PTSUNNY   99  48  18 VRB7      29.84S
MESA-GATEWAY   PTSUNNY   97  52  21 NW7       29.85F
CHANDLER       PTSUNNY   95  59  30 NW6       29.82F
$$

AZZ027-028-030100-
SOUTHWEST MARICOPA COUNTY AND PINAL COUNTY

CITY           SKY/WX    TMP DP  RH WIND       PRES   REMARKS
CASA GRANDE    MOSUNNY  100  52  19 SW14      29.83S
6HR MIN TEMP:  91; 6HR MAX TEMP: 100; 6HR PCP:  5.93;

GILA BEND      PTSUNNY  101  46  15 SW16G22   29.78S
6HR MIN TEMP:  96; 6HR MAX TEMP: 104;

$$

AZZ503-504-507>509-030100-
SOUTHEAST ARIZONA

CITY           SKY/WX    TMP DP  RH WIND       PRES   REMARKS
TUCSON         PTSUNNY   92  56  29 SE17      29.95F
6HR MIN TEMP:  87; 6HR MAX TEMP:  96; 6HR PCP: TRACE;

DAVIS-MONTHAN  MOSUNNY   89  59  36 SE15      29.94F
6HR MIN TEMP:  86; 6HR MAX TEMP:  92;

RYAN FIELD     MOSUNNY   93  57  29 SE12      29.93S
NOGALES        TSTM      70  62  76 MISG      30.07R
6HR MIN TEMP:  71; 6HR MAX TEMP:  91; 6HR PCP:  0.03;

SIERRA VISTA   PTSUNNY   73  61  67 E2        30.13S
6HR MIN TEMP:  67; 6HR MAX TEMP:  84; 6HR PCP:  0.70;

DOUGLAS        PTSUNNY   77  54  44 N24G35    30.07R
6HR MIN TEMP:  77; 6HR MAX TEMP:  90; 6HR PCP: TRACE;

SAFFORD        CLOUDY    73  62  68 E7        30.04R
6HR MIN TEMP:  72; 6HR MAX TEMP:  92; 6HR PCP: TRACE;

$$

AZZ020-021-025-026-031-030100-
SOUTHWEST ARIZONA

CITY           SKY/WX    TMP DP  RH WIND       PRES   REMARKS
YUMA           PTSUNNY  101  47  16 S14       29.73F
6HR MIN TEMP:  96; 6HR MAX TEMP: 104;

$$

CAZ031-033-041-043-047-048-061-030100-
SOUTHERN CALIFORNIA

CITY           SKY/WX    TMP DP  RH WIND       PRES   REMARKS
DOWNTOWN L.A.  SUNNY     76  59  55 SW3       29.89F
6HR MIN TEMP:  75; 6HR MAX TEMP:  81;

L.A. AIRPORT   MOSUNNY   71  60  68 W12       29.90F
6HR MIN TEMP:  71; 6HR MAX TEMP:  74;

SAN DIEGO      MOSUNNY   73  58  59 W7        29.93S
6HR MIN TEMP:  72; 6HR MAX TEMP:  76;

ONTARIO        MOSUNNY   83  56  39 SW15G23   29.88F
6HR MIN TEMP:  75; 6HR MAX TEMP:  87;

RIVERSIDE      MOSUNNY   84  57  39 W12       29.87F
6HR MIN TEMP:  75; 6HR MAX TEMP:  88;

PALM SPRINGS   MOSUNNY   98  43  15 NW10G17   29.76F
6HR MIN TEMP:  92; 6HR MAX TEMP: 103;

EL CENTRO NAS  PTSUNNY  102  48  16 CALM      29.72F
6HR MIN TEMP:  93; 6HR MAX TEMP: 103;

IMPERIAL       PTSUNNY  103  48  15 SE9       29.70F
6HR MIN TEMP:  93; 6HR MAX TEMP: 104;

BLYTHE         MOSUNNY  101  48  16 S13       29.74F
6HR MIN TEMP:  93; 6HR MAX TEMP: 103;

NEEDLES        MOSUNNY  102  43  13 S13G25    29.77F
6HR MIN TEMP:  97; 6HR MAX TEMP: 105;

$$

NVZ020-UTZ003-030100-
SOUTHERN NEVADA-UTAH

CITY           SKY/WX    TMP DP  RH WIND       PRES   REMARKS
LAS VEGAS      MOSUNNY   99  39  12 S14G23    29.76F
6HR MIN TEMP:  91; 6HR MAX TEMP: 101;

SALT LAKE CITY PTSUNNY   91  38  15 S18       29.85F
6HR MIN TEMP:  86; 6HR MAX TEMP:  92;

$$

NMZ009-TXZ055-030100-
NEW MEXICO-WEST TEXAS

CITY           SKY/WX    TMP DP  RH WIND       PRES   REMARKS
ALBUQUERQUE    CLOUDY    77  46  33 W25G33    30.12R
6HR MIN TEMP:  77; 6HR MAX TEMP:  90;

EL PASO        PTSUNNY   96  41  15 CALM      29.95F
6HR MIN TEMP:  92; 6HR MAX TEMP:  99;

$$


........................KEY........................
SKY/WX - SKY CONDITION/WEATHER
TMP    - TEMPERATURE IN FAHRENHEIT
DP     - DEW POINT IN FAHRENHEIT
RH     - RELATIVE HUMIDITY IN PERCENT
WIND   - DIRECTION AND SPEED IN MILES PER HOUR (MPH)
VRB    - VARIABLE WIND DIRECTION
PRES   - MEAN SEA LEVEL PRESSURE IN INCHES OF MERCURY
         F - FALLING PRESSURE   R - RISING PRESSURE
         S - STEADY PRESSURE
VSB    - VISIBILITY IN MILES
HX     - HEAT INDEX IN FAHRENHEIT
WCI    - WIND CHILL INDEX IN FAHRENHEIT
TC     - TEMPERATURE IN CELSIUS WHICH IS ALSO KNOWN AS
         TEMPERATURE IN CENTIGRADE
AFB    - AIR FORCE BASE
         LUKE AFB IS LUKE AIR FORCE BASE
         DAVIS-MONTHAN IS DAVIS-MONTHAN AIR FORCE BASE
NAS    - NAVAL AIR STATION
         EL CENTRO NAS IS EL CENTRO NAVAL AIR STATION
N/A    - NOT AVAILABLE



USA.gov is the U.S. government's official web portal to all federal, state and local government web resources and services.